Location: Axams
(47.2333°N, 11.3000°E)
Time: 23:08:01
(UTC+00:00)

Daily predictions for brighter satellites

Satellite Brightness Start Highest point End
(mag) Time Altitude Azimuth Time Altitude Azimuth Time Altitude Azimuth
ATLAS 3B R/B 3.2 15:47:38 10° NW 15:54:51 79° SW 16:02:21 10° SSE
Cosmos 1725 Rocket 4.4 15:50:22 10° SSW 15:56:30 69° W 16:02:42 10° N
NOAA 11 4.2 15:51:51 10° SSE 15:57:16 87° ENE 16:02:43 10° NNW
Cosmos 2098 Rocket 4.2 15:53:09 10° N 15:59:10 61° ENE 16:06:11 10° SSE
USA 308 3.9 15:55:24 10° SSW 15:59:16 35° SE 16:03:08 10° ENE
Cosmos 2369 Rocket 4.1 15:54:46 10° NW 15:59:53 36° WSW 16:05:01 10° S
SL-4 R/B 3.8 15:55:48 10° WNW 16:00:08 42° SW 16:04:37 10° SSE
Cosmos 1812 Rocket 3.9 15:55:43 10° SSW 16:00:09 71° W 16:04:38 10° N
ATLAS 5 CENTAUR R/B 3.0 15:54:42 10° NW 16:00:13 64° SW 16:06:45 10° SSE
CZ-4C R/B 4.1 16:00:24 10° NW 16:04:58 20° N 16:10:09 10° NE
Cosmos 1943 3.6 15:59:55 10° SW 16:05:32 68° WNW 16:11:10 10° NNE
CZ-2C R/B 2.9 16:00:33 10° SSE 16:05:38 76° ENE 16:10:30 10° N
SJ 16-02 2.0 16:02:04 10° N 16:06:05 34° ENE 16:10:03 10° SE
Cosmos-2242 3.1 16:04:05 10° S 16:08:24 86° W 16:12:44 10° N
MOS 1 Rocket 4.4 16:03:26 10° N 16:08:31 50° WNW 16:13:19 10° SW
FengYun 1-2 T 4.3 16:03:13 10° SSE 16:08:45 63° ENE 16:14:16 10° N
NOAA 6 4.1 16:07:15 10° SE 16:12:16 55° ENE 16:17:17 10° N
Cosmos 2151 4.4 16:08:38 10° NNW 16:12:43 43° W 16:16:46 10° SSW
Cosmos 1354 Rocket 4.2 16:07:26 10° NNW 16:12:48 85° WSW 16:18:08 10° SSE
CZ-4B R/B 4.0 16:08:48 10° ESE 16:13:19 27° ENE 16:17:46 10° N
CORIOLIS 4.3 16:09:10 10° SE 16:14:21 52° ENE 16:19:36 10° N
CZ-4B R/B 3.1 16:14:46 10° SSE 16:19:03 82° WSW 16:23:09 10° NNW
Iridium 2 3.6 16:21:47 10° N 16:25:33 63° E 16:29:15 10° SSE
Cosmos 1869 4.4 16:22:16 10° SSW 16:26:03 46° WNW 16:29:49 10° N
Cosmos 1766 Rocket 3.5 16:22:20 10° N 16:26:42 78° E 16:31:02 10° SSE
USA 305 3.0 16:25:56 10° SW 16:30:06 65° SE 16:33:32 15° ENE
SL-08 R/B 4.0 16:26:29 10° N 16:31:11 56° WNW 16:35:47 10° SSW
Cosmos 1606 3.0 16:27:41 10° SSE 16:31:14 43° E 16:34:49 10° NNE
ARGOS 3.9 16:28:55 10° ESE 16:33:33 30° ENE 16:38:12 10° N
Okean O Rocket 2.5 16:32:36 10° ESE 16:36:19 27° ENE 16:40:03 10° N
USA 276 2.5 16:33:18 10° W 16:36:21 49° N 16:38:19 19° ENE
COSMO-SKYMED 1 3.7 16:34:16 11° NE 16:37:40 24° E 16:41:12 10° SSE
Cosmos 1464 Rocket 4.0 16:33:31 10° S 16:39:47 65° E 16:46:07 10° NNE
Aureole 3 4.2 16:37:31 10° S 16:42:38 83° E 16:49:09 10° N
ERBS 3.3 16:43:13 10° SSW 16:46:02 28° SE 16:47:12 22° E
Meteor 2-19 Rocket 4.4 16:41:47 10° N 16:47:51 68° ENE 16:53:55 10° SSE
Cosmos 2221 2.5 16:45:06 10° S 16:49:17 61° E 16:53:31 10° NNE
NOSS 2-1 (E) 2.7 16:46:58 10° SW 16:50:15 85° SE 16:52:18 21° NE
USA 267 3.8 16:47:44 14° NE 16:53:07 48° NNW 16:59:20 10° W
ISS -3.2 16:49:52 10° W 16:53:11 50° NNW 16:54:50 26° NE
CZ-2C R/B 3.1 16:48:46 10° NNE 16:53:39 37° E 16:58:26 10° SSE
Cosmos 1340 Rocket 3.1 16:52:16 10° N 16:56:10 44° ENE 17:00:03 10° SSE
deb Chang Zheng 4 3.7 16:53:14 10° SE 16:57:23 50° ENE 17:01:34 10° N
Cosmos 1933 4.4 16:54:08 10° SE 16:57:27 25° E 16:57:31 25° E
YAOGAN 1 3.9 16:58:27 20° NE 16:58:27 20° NE 17:00:48 10° NNE
deb Kosmos-1763 4.0 16:54:12 10° S 16:57:30 51° ESE 16:59:07 26° NE
Cosmos 990 Rocket 4.4 16:55:17 10° N 17:00:12 40° ENE 17:05:05 10° SE
Nadezhda 4 Rocket 3.9 16:54:16 10° N 17:00:36 76° E 17:06:55 10° SSE
Cosmos 1271 Rocket 3.6 16:57:01 10° SSW 17:00:49 52° WNW 17:04:42 10° N
USA 306 2.8 16:57:31 10° WSW 17:01:47 84° NNW 17:04:01 27° ENE
USA 229 DEB 4.2 16:55:05 10° NW 17:01:59 46° NE 17:07:26 18° ESE
USA 229 4.2 16:55:11 10° NW 17:02:05 45° NE 17:07:28 18° ESE
Lacrosse 5 rocket 2.9 16:59:14 10° WNW 17:02:14 21° N 17:03:54 17° NNE
Landsat 5 4.2 17:02:19 26° ENE 17:03:41 32° E 17:07:25 10° SSE
SMAP 4.0 17:00:46 10° S 17:05:16 50° W 17:09:49 10° NNW
Cosmos 1092 Rocket 4.1 17:01:18 10° N 17:07:30 52° ENE 17:13:41 10° SSE
Cosmos 1408 Rocket 3.6 17:04:07 10° N 17:08:29 82° W 17:12:49 10° S
ATLAS 2AS CENTAUR R/B 4.1 17:02:08 10° W 17:09:11 35° NNW 17:15:29 12° NNE
Cosmos 1743 Rocket 3.5 17:06:08 10° N 17:10:26 57° ENE 17:14:41 10° SSE
Cosmos 1697 Rocket 3.2 17:07:14 10° NNW 17:12:24 36° NE 17:14:22 28° E
Cosmos 1980 Rocket 3.4 17:08:11 10° N 17:12:37 23° NE 17:12:43 23° NE
H-2A R/B 2.1 17:07:37 10° SSE 17:12:54 88° WSW 17:18:06 10° NNW
COSMOS 2406 4.4 17:11:15 10° SSE 17:15:10 23° ESE 17:15:10 23° ESE
PAYLOAD B 4.5 17:10:05 10° S 17:15:42 75° WSW 17:21:20 10° NNW
USA 307 2.9 17:12:36 10° WSW 17:16:54 75° NNW 17:18:33 36° NE
SJ-11-01 4.2 17:13:29 10° SSE 17:18:11 65° ENE 17:22:54 10° N
Cosmos 44 3.2 17:13:54 10° NNW 17:18:44 61° NE 17:20:56 29° ESE
Cosmos 2034 Rocket 3.9 17:15:00 10° S 17:21:10 89° WNW 17:27:22 10° N
ATLAS CENTAUR R/B 2.4 17:17:20 10° WSW 17:21:16 42° NW 17:23:56 20° NNE
Cosmos 1627 Rocket 4.5 17:16:51 10° N 17:23:00 58° ENE 17:29:03 10° SSE
Lacrosse 5 3.1 17:19:10 10° WNW 17:23:57 41° SW 17:28:43 10° SSE
NOSS 3-1 (A) 4.1 17:18:15 10° NW 17:25:29 61° NE 17:31:39 20° ESE
SKYMED 2 3.4 17:22:52 19° NNE 17:25:57 74° ESE 17:30:16 10° S
Cosmos 1428 Rocket 4.4 17:19:57 10° N 17:26:01 61° ENE 17:32:05 10° SSE
Cosmos 1809 Rocket 4.3 17:22:27 10° N 17:28:34 65° ENE 17:34:35 10° SSE
Cosmos 1898 Rocket 3.6 17:23:58 10° NNW 17:29:09 52° ENE 17:31:16 32° ESE
NOSS 3-1 (C) 4.0 17:23:03 10° NW 17:30:30 88° NE 17:39:15 10° SE
MOS 1-B Rocket 3.9 17:25:09 10° NNE 17:30:49 90° NE 17:37:02 10° SSW
NOSS 2-1 (C) 4.3 17:28:18 10° WSW 17:31:16 32° NW 17:32:11 27° N
Cosmos 1656 3.5 17:26:13 10° NNW 17:31:46 86° ENE 17:37:21 10° SSE
GEOS 3 Rocket 3.9 17:28:44 10° SSE 17:33:57 67° SW 17:39:10 10° NW
Cosmos 2084 4.2 17:30:29 10° NNW 17:33:54 36° NNE 17:33:54 36° NNE
Meteor 1-20 Rocket 4.2 17:30:26 10° NNW 17:36:15 90° E 17:42:06 10° S
USA 308 3.2 17:34:50 10° WSW 17:39:01 58° NNW 17:39:45 50° NNE
SL-08 RB Rocket 3.6 17:34:32 10° SSE 17:39:10 71° ENE 17:43:49 10° N
NOSS 2-1 (D) 4.5 17:37:44 10° W 17:40:35 27° NW 17:41:11 26° NNW
Cosmos 468 Rocket 3.9 17:36:53 10° S 17:41:55 59° ESE 17:42:42 52° ENE
Cosmos 1500 Rocket 4.0 17:37:33 10° NNW 17:41:59 64° W 17:46:22 10° S
Cosmos 2279 Rocket 4.2 17:37:48 10° SSE 17:43:29 43° E 17:43:29 43° E
SJ 16-02 3.5 17:40:50 10° NW 17:44:31 27° W 17:48:11 10° SSW
Cosmos 2360 4.2 17:41:56 10° NNW 17:47:37 57° ENE 17:48:27 52° E
Cosmos 1634 Rocket 3.9 17:43:18 10° S 17:49:34 74° E 17:55:55 10° NNE
Cosmos 1805 Rocket 3.5 17:47:59 10° N 17:52:21 83° W 17:56:41 10° S
CZ-4B R/B 4.0 17:48:15 10° S 17:53:35 52° W 17:58:52 10° NNW
CZ-4C R/B 3.4 17:49:10 10° NNW 17:55:29 38° NE 17:56:09 37° NE
CZ-4 R/B 3.5 18:00:41 18° N 18:00:41 18° N 18:01:47 10° N
Cosmos 1833 Rocket 2.6 17:53:20 10° S 17:58:47 62° ESE 17:58:47 62° ESE
ATLAS 5 CENTAUR R/B 3.2 17:52:18 10° NW 17:58:54 36° N 17:58:54 36° N
Cosmos 540 Rocket 4.4 17:59:30 10° S 18:02:28 34° SSE 18:02:28 34° SSE
Cosmos 2026 Rocket 4.1 18:02:36 10° NNW 18:08:47 70° W 18:14:50 10° S
USA 305 4.0 18:06:08 10° W 18:09:31 39° NW 18:09:31 39° NW
Sich 1 4.5 18:07:08 10° NNW 18:09:17 29° NNW 18:09:17 29° NNW
Okean O Rocket 3.1 18:08:26 10° SSW 18:12:31 36° W 18:16:40 10° NNW
ARGOS 4.2 18:08:27 10° S 18:13:37 45° W 18:18:50 10° NNW
COSMO-SKYMED 1 4.0 18:11:30 20° NNW 18:13:55 37° WNW 18:17:54 10° SW
ATLAS CENTAUR R/B 2.6 18:10:55 10° SW 18:19:17 80° WSW 18:19:17 80° WSW
Cosmos 1937 Rocket 3.7 18:16:26 10° NNW 18:21:06 68° NW 18:21:06 68° NW
Meteor 2-16 Rocket 4.3 18:18:43 10° N 18:24:52 90° W 18:25:15 80° S
Cosmos 1763 Rocket 4.0 18:23:46 10° SW 18:28:43 55° WNW 18:28:45 55° WNW
ISS -0.6 18:27:13 10° WNW 18:27:49 14° WNW 18:27:49 14° WNW
CZ-2C R/B 4.1 18:29:12 10° N 18:33:52 33° WNW 18:38:27 10° SW
USA 267 4.0 18:35:05 38° N 18:35:22 38° N 18:41:16 10° WNW
Cosmos 2369 4.3 18:33:58 10° NNW 18:38:07 49° NNW 18:38:07 49° NNW
Lacrosse 5 rocket 4.2 18:39:13 10° NW 18:39:29 11° NW 18:39:29 11° NW
USA 229 DEB 4.3 18:46:04 10° NW 18:53:16 59° WSW 18:54:57 49° SSW
USA 229 4.3 18:46:09 10° NW 18:53:22 60° WSW 18:54:58 50° SSW
Cosmos 1697 Rocket 3.7 18:51:11 10° NW 18:56:10 42° W 18:56:10 42° W
Cosmos 1980 Rocket 3.6 18:51:35 10° NNW 18:54:31 32° NNW 18:54:31 32° NNW
SL-16 R/B 4.5 18:52:21 10° NNW 18:53:08 14° N 18:53:08 14° N
COSMOS 2406 4.4 18:53:48 10° SW 18:57:17 37° SW 18:57:17 37° SW
ATLAS CENTAUR R/B 4.4 18:59:19 10° NW 19:00:03 12° NW 19:00:03 12° NW
ATLAS 2AS CENTAUR R/B 4.4 18:56:44 10° NW 19:02:29 22° N 19:02:55 22° N
Cosmos 2082 Rocket 4.4 18:57:21 10° SSW 18:58:13 15° SSW 18:58:13 15° SSW
CZ-4C R/B 4.0 19:37:29 10° NW 19:41:21 37° NW 19:41:21 37° NW
